Location: Newark
(27.9675°N, 86.8869°E)
Time: 00:26:35
(UTC+00:00)

Courier 1B Rocket - Pass Details

Date: 30 October 2019
Orbit: 920 x 1202 km, 28.2° (Epoch: 21 November)

Event Time Altitude Azimuth Distance (km) Brightness Sun altitude
Rises 14:23:30 0° 214° (SW) 4,046 8.5 -38.8°
Reaches altitude 10° 14:27:04 10° 200° (SSW) 3,052 7.7 -39.6°
Enters shadow 14:27:39 12° 197° (SSW) 2,908 7.5 -39.7°
